TimeMST,TemperatureF,Dew PointF,Humidity,Sea Level PressureIn,VisibilityMPH,Wind Direction,Wind SpeedMPH,Gust SpeedMPH,PrecipitationIn,Events,Conditions,WindDirDegrees,DateUTC
12:15 AM,30.2,24.8,80,30.07,10.0,West,3.5,-,N/A,,Mostly Cloudy,260,2012-11-17 07:15:00
12:35 AM,30.2,26.6,86,30.07,10.0,West,4.6,-,N/A,,Overcast,260,2012-11-17 07:35:00
12:55 AM,30.2,26.6,86,30.06,10.0,West,8.1,-,N/A,,Overcast,270,2012-11-17 07:55:00
1:15 AM,32.0,26.6,80,30.06,10.0,WNW,8.1,-,N/A,,Overcast,300,2012-11-17 08:15:00
1:35 AM,32.0,26.6,80,30.06,10.0,West,4.6,-,N/A,,Overcast,280,2012-11-17 08:35:00
1:55 AM,32.0,26.6,80,30.06,10.0,West,4.6,-,N/A,,Overcast,270,2012-11-17 08:55:00
2:15 AM,32.0,26.6,80,30.06,10.0,West,4.6,-,N/A,,Overcast,280,2012-11-17 09:15:00
2:35 AM,32.0,26.6,80,30.07,10.0,West,4.6,-,N/A,,Overcast,270,2012-11-17 09:35:00
2:55 AM,30.2,24.8,80,30.07,10.0,West,3.5,-,N/A,,Scattered Clouds,280,2012-11-17 09:55:00
3:15 AM,32.0,23.0,69,30.07,10.0,WSW,4.6,-,N/A,,Scattered Clouds,250,2012-11-17 10:15:00
3:35 AM,30.2,23.0,75,30.06,10.0,West,4.6,-,N/A,,Clear,260,2012-11-17 10:35:00
3:55 AM,30.2,23.0,75,30.05,10.0,West,4.6,-,N/A,,Clear,280,2012-11-17 10:55:00
4:15 AM,30.2,23.0,75,30.06,10.0,WNW,5.8,-,N/A,,Clear,290,2012-11-17 11:15:00
4:55 AM,26.6,23.0,86,30.07,10.0,WSW,4.6,-,N/A,,Clear,250,2012-11-17 11:55:00
5:15 AM,24.8,23.0,93,-9999,10.0,West,6.9,-,N/A,,Clear,260,2012-11-17 12:15:00
5:35 AM,26.6,23.0,86,-9999,10.0,WNW,5.8,-,N/A,,Clear,290,2012-11-17 12:35:00
5:55 AM,26.6,21.2,80,-9999,10.0,WNW,8.1,-,N/A,,Clear,290,2012-11-17 12:55:00
6:15 AM,28.4,23.0,80,-9999,10.0,West,5.8,-,N/A,,Clear,280,2012-11-17 13:15:00
6:35 AM,30.2,23.0,75,-9999,10.0,West,5.8,-,N/A,,Clear,270,2012-11-17 13:35:00
6:55 AM,30.2,23.0,75,-9999,10.0,West,4.6,-,N/A,,Clear,260,2012-11-17 13:55:00
7:15 AM,30.2,21.2,69,-9999,10.0,WSW,9.2,-,N/A,,Clear,250,2012-11-17 14:15:00
7:35 AM,26.6,21.2,80,-9999,10.0,SW,8.1,-,N/A,,Clear,220,2012-11-17 14:35:00
8:15 AM,26.6,23.0,86,-9999,10.0,WSW,10.4,-,N/A,,Clear,250,2012-11-17 15:15:00
8:35 AM,26.6,24.8,93,-9999,10.0,WSW,12.7,-,N/A,,Clear,250,2012-11-17 15:35:00
8:55 AM,30.2,24.8,80,30.07,10.0,WSW,11.5,-,N/A,,Clear,240,2012-11-17 15:55:00
9:15 AM,32.0,24.8,75,30.07,10.0,SW,8.1,-,N/A,,Scattered Clouds,230,2012-11-17 16:15:00
9:35 AM,32.0,26.6,80,30.07,10.0,SW,10.4,17.3,N/A,,Overcast,230,2012-11-17 16:35:00
10:55 AM,33.8,26.6,75,30.06,10.0,WSW,16.1,20.7,N/A,,Overcast,240,2012-11-17 17:55:00
11:15 AM,35.6,26.6,70,30.05,10.0,WSW,17.3,21.9,N/A,,Mostly Cloudy,250,2012-11-17 18:15:00
11:35 AM,37.4,26.6,65,30.04,10.0,SW,11.5,20.7,N/A,,Mostly Cloudy,220,2012-11-17 18:35:00
12:15 PM,33.8,30.2,87,30.04,10.0,SW,13.8,20.7,N/A,,Scattered Clouds,220,2012-11-17 19:15:00
12:35 PM,33.8,30.2,87,30.03,10.0,SW,10.4,-,N/A,,Scattered Clouds,220,2012-11-17 19:35:00
12:55 PM,32.0,30.2,93,30.04,10.0,SW,12.7,17.3,N/A,,Mostly Cloudy,220,2012-11-17 19:55:00
1:15 PM,32.0,30.2,93,30.04,10.0,SW,9.2,-,N/A,,Overcast,220,2012-11-17 20:15:00
1:35 PM,33.8,30.2,87,30.04,10.0,SW,9.2,-,N/A,,Overcast,220,2012-11-17 20:35:00
2:15 PM,35.6,30.2,81,30.03,10.0,SW,6.9,-,N/A,,Overcast,220,2012-11-17 21:15:00
2:35 PM,33.8,30.2,87,30.03,10.0,WSW,8.1,-,N/A,,Overcast,240,2012-11-17 21:35:00
3:15 PM,33.8,30.2,87,30.02,10.0,SW,5.8,-,N/A,,Mostly Cloudy,220,2012-11-17 22:15:00
3:35 PM,33.8,30.2,87,30.01,10.0,SW,4.6,-,N/A,,Overcast,230,2012-11-17 22:35:00
3:55 PM,33.8,30.2,87,30.01,10.0,SW,5.8,-,N/A,,Overcast,220,2012-11-17 22:55:00
4:15 PM,33.8,32.0,93,30.02,10.0,SSW,6.9,-,N/A,,Overcast,210,2012-11-17 23:15:00
4:35 PM,32.0,32.0,100,30.01,10.0,SSW,8.1,-,N/A,,Overcast,210,2012-11-17 23:35:00
4:55 PM,32.0,32.0,100,30.01,10.0,SW,8.1,-,N/A,,Overcast,220,2012-11-17 23:55:00
5:15 PM,32.0,32.0,100,30.01,10.0,SW,6.9,-,N/A,,Overcast,220,2012-11-18 00:15:00
5:35 PM,32.0,32.0,100,30.00,10.0,SW,8.1,-,N/A,,Overcast,230,2012-11-18 00:35:00
5:55 PM,32.0,32.0,100,30.00,10.0,WSW,8.1,-,N/A,,Overcast,240,2012-11-18 00:55:00
6:15 PM,33.8,30.2,87,30.00,10.0,WSW,9.2,-,N/A,,Overcast,240,2012-11-18 01:15:00
6:35 PM,33.8,32.0,93,30.00,4.0,SW,9.2,-,N/A,Snow,Light Snow,230,2012-11-18 01:35:00
6:55 PM,32.0,32.0,100,30.00,4.0,WSW,9.2,-,N/A,Snow,Light Snow,250,2012-11-18 01:55:00
7:15 PM,32.0,32.0,100,30.00,0.8,WSW,9.2,-,N/A,Snow,Light Snow,240,2012-11-18 02:15:00
7:35 PM,32.0,32.0,100,30.00,4.0,WSW,10.4,-,N/A,Snow,Light Snow,240,2012-11-18 02:35:00
7:55 PM,32.0,32.0,100,29.98,10.0,WSW,10.4,-,N/A,,Overcast,240,2012-11-18 02:55:00
8:15 PM,32.0,32.0,100,29.97,4.0,WSW,11.5,-,N/A,Snow,Light Snow,240,2012-11-18 03:15:00
8:35 PM,32.0,32.0,100,29.97,10.0,WSW,10.4,-,N/A,,Overcast,240,2012-11-18 03:35:00
8:55 PM,32.0,32.0,100,29.98,10.0,WSW,13.8,18.4,N/A,,Mostly Cloudy,240,2012-11-18 03:55:00
9:15 PM,32.0,32.0,100,29.97,10.0,SW,9.2,-,N/A,Snow,Light Snow,230,2012-11-18 04:15:00
9:35 PM,32.0,32.0,100,29.96,10.0,WSW,11.5,-,N/A,,Overcast,240,2012-11-18 04:35:00
9:55 PM,32.0,32.0,100,29.96,10.0,WSW,10.4,-,N/A,,Mostly Cloudy,250,2012-11-18 04:55:00
10:15 PM,32.0,32.0,100,29.96,10.0,SW,6.9,-,N/A,,Overcast,220,2012-11-18 05:15:00
10:35 PM,32.0,32.0,100,29.95,10.0,SW,11.5,16.1,N/A,,Overcast,230,2012-11-18 05:35:00
10:55 PM,32.0,32.0,100,29.94,10.0,SW,11.5,17.3,N/A,,Mostly Cloudy,230,2012-11-18 05:55:00
11:15 PM,32.0,32.0,100,29.94,10.0,WSW,13.8,-,N/A,,Mostly Cloudy,250,2012-11-18 06:15:00
11:35 PM,33.8,32.0,93,29.94,10.0,WSW,13.8,-,N/A,,Overcast,240,2012-11-18 06:35:00